QPF
0.00 0.00 0.00 0.00 0.00 0.00 0.00 0.00 0.00 0.00 0.00 0.00 0.00 0.00 0.00 0.00 0.00 0.00 0.00 0.00 0.00 0.00 0.00 0.00 0.00 0.00 0.00 0.00 0.00 0.00 0.00 0.00 0.00 0.00 0.00 0.00 0.00 0.00 0.00 0.00 0.00 0.00 0.00 0.00 0.00
0.00 0.00 0.00 0.00 0.00 0.00 0.00 0.00 0.00 0.00 0.00 0.00 0.00 0.00 0.00 0.00 0.00 0.00 0.00 0.00 0.00 0.00 0.00 0.00 0.00 0.00 0.00 0.00 0.00 0.00 0.00 0.00 0.00 0.00 0.00 0.00 0.00 0.00 0.00 0.00 0.00 0.00 0.00 0.00 0.00
0.00 0.00 0.00 0.00 0.00 0.00 0.00 0.00 0.00 0.00 0.00 0.00 0.00 0.00 0.00 0.00 0.00 0.00 0.00 0.00 0.00 0.00 0.00 0.00 0.00 0.00 0.00 0.00 0.00 0.00 0.00 0.00 0.00 0.00 0.00 0.00 0.00 0.00 0.00 0.00 0.00 0.00 0.00 0.00 0.00
0.00 0.00 0.00 0.00 0.00 0.00 0.00 0.00 0.00 0.00 0.00 0.00 0.00 0.00 0.00 0.00 0.00 0.00 0.00 0.00 0.00 0.00 0.00 0.00 0.00 0.00 0.00 0.00 0.00 0.00 0.00 0.00 0.00 0.00 0.00 0.00 0.00 0.00 0.00 0.00 0.00 0.00 0.00 0.00 0.00
0.00 0.00 0.00 0.00 0.00 0.00 0.00 0.00 0.00 0.00 0.00 0.00 0.00 0.00 0.00 0.00 0.00 0.00 0.00 0.00 0.00 0.00 0.00 0.00 0.00 0.00 0.00 0.00 0.00 0.00 0.00 0.00 0.00 0.00 0.00 0.00 0.00 0.00 0.00 0.00 0.00 0.00 0.00 0.00 0.00
0.00 0.00 0.00 0.00 0.00 0.00 0.00 0.00 0.00 0.00 0.00 0.00 0.00 0.00 0.00 0.00 0.00 0.00 0.00 0.00 0.00 0.00 0.00 0.00 0.00 0.00 0.00 0.00 0.00 0.00 0.00 0.00 0.00 0.00 0.00 0.00 0.00 0.00 0.00 0.00 0.00 0.00 0.00 0.00 0.00
0.00 0.00 0.00 0.00 0.00 0.00 0.00 0.00 0.00 0.00 0.00 0.00 0.00 0.00 0.00 0.00 0.00 0.00 0.00 0.00 0.00 0.00 0.00 0.00 0.00 0.00 0.00 0.00 0.00 0.00 0.00 0.00 0.00 0.00 0.00 0.00 0.00 0.00 0.00 0.00 0.00 0.00 0.00 0.00 0.00
0.00 0.00 0.00 0.00 0.00 0.00 0.00 0.00 0.00 0.00 0.00 0.00 0.00 0.00 0.00 0.00 0.00 0.00 0.00 0.00 0.00 0.00 0.00 0.00 0.00 0.00 0.00 0.00 0.00 0.00 0.00 0.00 0.00 0.00 0.00 0.00 0.00 0.00 0.00 0.00 0.00 0.00 0.00 0.00 0.00
0.00 0.00 0.00 0.00 0.00 0.00 0.00 0.00 0.00 0.00 0.00 0.00 0.00 0.00 0.00 0.00 0.00 0.00 0.00 0.00 0.00 0.00 0.00 0.00 0.00 0.00 0.00 0.00 0.00 0.00 0.00 0.00 0.00 0.00 0.00 0.00 0.00 0.00 0.00 0.00 0.00 0.00 0.00 0.00 0.00
0.00 0.00 0.00 0.00 0.00 0.00 0.00 0.00 0.00 0.00 0.00 0.00 0.00 0.00 0.00 0.00 0.00 0.00 0.00 0.00 0.00 0.00 0.00 0.00 0.00 0.00 0.00 0.00 0.00 0.00 0.00 0.00 0.00 0.00 0.00 0.00 0.00 0.00 0.00 0.00 0.00 0.00 0.00 0.00 0.00
0.00 0.00 0.00 0.00 0.00 0.00 0.00 0.00 0.00 0.00 0.00 0.00 0.00 0.00 0.00 0.00 0.00 0.00 0.00 0.00 0.00 0.00 0.00 0.00 0.00 0.00 0.00 0.00 0.00 0.00 0.00 0.00 0.00 0.00 0.00 0.00 0.00 0.00 0.00 0.00 0.00 0.00 0.00 0.00 0.00
0.00 0.00 0.00 0.00 0.00 0.00 0.00 0.00 0.00 0.00 0.00 0.00 0.00 0.00 0.00 0.00 0.00 0.00 0.00 0.00 0.00 0.00 0.00 0.00 0.00 0.00 0.00 0.00 0.00 0.00 0.00 0.00 0.00 0.00 0.00 0.00 0.00 0.00 0.00 0.00 0.00 0.00 0.00 0.00 0.00
0.00 0.00 0.00 0.00 0.00 0.00 0.00 0.00 0.00 0.00 0.00 0.00 0.00 0.00 0.00 0.00 0.00 0.00 0.00 0.00 0.00 0.00 0.00 0.00 0.00 0.00 0.00 0.00 0.00 0.00 0.00 0.00 0.00 0.00 0.00 0.00 0.00 0.00 0.00 0.00 0.00 0.00 0.00 0.00 0.00
0.00 0.00 0.00 0.00 0.00 0.00 0.00 0.00 0.00 0.00 0.00 0.00 0.00 0.00 0.00 0.00 0.00 0.00 0.00 0.00 0.00 0.00 0.00 0.00 0.00 0.00 0.00 0.00 0.00 0.00 0.00 0.00 0.00 0.00 0.00 0.00 0.00 0.00 0.00 0.00 0.00 0.00 0.00 0.00 0.00
0.00 0.00 0.00 0.00 0.00 0.00 0.00 0.00 0.00 0.00 0.00 0.00 0.00 0.00 0.00 0.00 0.00 0.00 0.00 0.00 0.00 0.00 0.00 0.00 0.00 0.00 0.00 0.00 0.00 0.00 0.00 0.00 0.00 0.00 0.00 0.00 0.00 0.00 0.00 0.00 0.00 0.00 0.00 0.00 0.00
0.00 0.00 0.00 0.00 0.00 0.00 0.00 0.00 0.00 0.00 0.00 0.00 0.00 0.00 0.00 0.00 0.00 0.00 0.00 0.00 0.00 0.00 0.00 0.00 0.00 0.00 0.00 0.00 0.00 0.00 0.00 0.00 0.00 0.00 0.00 0.00 0.00 0.00 0.00 0.00 0.00 0.00 0.00 0.00 0.00
0.00 0.00 0.00 0.00 0.00 0.00 0.00 0.00 0.00 0.00 0.00 0.00 0.00 0.00 0.00 0.00 0.00 0.00 0.00 0.00 0.00 0.00 0.00 0.00 0.00 0.00 0.00 0.00 0.00 0.00 0.00 0.00 0.00 0.00 0.00 0.00 0.00 0.00 0.00 0.00 0.00 0.00 0.00 0.00 0.00
0.00 0.00 0.00 0.00 0.00 0.00 0.00 0.00 0.00 0.00 0.00 0.00 0.00 0.00 0.00 0.00 0.00 0.00 0.00 0.00 0.00 0.00 0.00 0.00 0.00 0.00 0.00 0.00 0.00 0.00 0.00 0.00 0.00 0.00 0.00 0.00 0.00 0.00 0.00 0.00 0.00 0.00 0.00 0.00 0.00
0.00 0.00 0.00 0.00 0.00 0.00 0.00 0.00 0.00 0.00 0.00 0.00 0.00 0.00 0.00 0.00 0.00 0.00 0.00 0.00 0.00 0.00 0.00 0.00 0.00 0.00 0.00 0.00 0.00 0.00 0.00 0.00 0.00 0.00 0.00 0.00 0.00 0.00 0.00 0.00 0.00 0.00 0.00 0.00 0.00
0.00 0.00 0.00 0.00 0.00 0.00 0.00 0.00 0.00 0.00 0.00 0.00 0.00 0.00 0.00 0.00 0.00 0.00 0.00 0.00 0.00 0.00 0.00 0.00 0.00 0.00 0.00 0.00 0.00 0.00 0.00 0.00 0.00 0.00 0.00 0.00 0.00 0.00 0.00 0.00 0.00 0.00 0.00 0.00 0.00
0.00 0.00 0.00 0.00 0.00 0.00 0.00 0.00 0.00 0.00 0.00 0.00 0.00 0.00 0.00 0.00 0.00 0.00 0.00 0.00 0.00 0.00 0.00 0.00 0.00 0.00 0.00 0.00 0.00 0.00 0.00 0.00 0.00 0.00 0.00 0.00 0.00 0.00 0.00 0.00 0.00 0.00 0.00 0.00 0.00
0.00 0.00 0.00 0.00 0.00 0.00 0.00 0.00 0.00 0.00 0.00 0.00 0.00 0.00 0.00 0.00 0.00 0.00 0.00 0.00 0.00 0.00 0.00 0.00 0.00 0.00 0.00 0.00 0.00 0.00 0.00 0.00 0.00 0.00 0.00 0.00 0.00 0.00 0.00 0.00 0.00 0.00 0.00 0.00 0.00
0.00 0.00 0.00 0.00 0.00 0.00 0.00 0.00 0.00 0.00 0.00 0.00 0.00 0.00 0.00 0.00 0.00 0.00 0.00 0.00 0.00 0.00 0.00 0.00 0.00 0.00 0.00 0.00 0.00 0.00 0.00 0.00 0.00 0.00 0.00 0.00 0.00 0.00 0.00 0.00 0.00 0.00 0.00 0.00 0.00
0.00 0.00 0.00 0.00 0.00 0.00 0.00 0.00 0.00 0.00 0.00 0.00 0.00 0.00 0.00 0.00 0.00 0.00 0.00 0.00 0.00 0.00 0.00 0.00 0.00 0.00 0.00 0.00 0.00 0.00 0.00 0.00 0.00 0.00 0.00 0.00 0.01 0.00 0.00 0.00 0.00 0.00 0.00 0.00 0.00
0.00 0.00 0.00 0.00 0.00 0.00 0.00 0.00 0.00 0.00 0.00 0.00 0.00 0.00 0.00 0.00 0.00 0.00 0.00 0.00 0.00 0.00 0.00 0.00 0.00 0.00 0.00 0.00 0.00 0.00 0.00 0.00 0.00 0.00 0.00 0.00 0.01 0.00 0.00 0.00 0.00 0.00 0.00 0.00 0.00
0.00 0.00 0.00 0.00 0.00 0.00 0.00 0.00 0.00 0.00 0.00 0.00 0.00 0.00 0.00 0.00 0.00 0.00 0.00 0.00 0.00 0.01 0.00 0.00 0.00 0.00 0.00 0.00 0.00 0.00 0.00 0.00 0.00 0.00 0.00 0.00 0.00 0.00 0.00 0.00 0.00 0.00 0.00 0.00 0.00
0.00 0.00 0.00 0.00 0.00 0.00 0.00 0.00 0.00 0.00 0.00 0.00 0.00 0.00 0.00 0.00 0.00 0.00 0.00 0.00 0.00 0.02 0.03 0.01 0.01 0.00 0.00 0.00 0.00 0.00 0.00 0.00 0.00 0.00 0.00 0.00 0.00 0.00 0.00 0.00 0.00 0.00 0.00 0.00 0.00
MSLP
1019.52 1019.12 1018.82 1018.38 1017.82 1017.23 1016.63 1016.01 1015.45 1014.92 1014.43 1013.94 1013.68 1013.26 1012.93 1012.46 1011.81 1011.45 1010.23 1007.47 1007.30 1007.14 1007.68 1007.31 1007.19 1006.94 1007.02 1006.95 1006.34 1006.02 1006.76 1006.13 1004.56 1003.53 1003.77 1003.90 1004.35 1004.91 1005.50 1006.60 1007.21 1007.81 1008.76 1009.56 1009.73
1019.59 1019.27 1018.94 1018.48 1017.78 1017.10 1016.50 1015.81 1015.20 1014.65 1014.08 1013.81 1013.53 1013.13 1012.73 1012.40 1011.74 1009.96 1007.12 1006.77 1006.62 1007.06 1007.40 1007.20 1007.06 1006.76 1007.10 1006.39 1005.93 1005.90 1005.90 1004.73 1003.23 1002.63 1003.09 1003.55 1004.22 1005.13 1005.90 1006.97 1007.88 1008.84 1009.38 1009.68 1009.87
1019.66 1019.20 1018.72 1018.15 1017.51 1016.86 1016.21 1015.60 1014.87 1014.39 1013.89 1013.56 1013.23 1012.92 1012.55 1012.41 1011.33 1007.47 1006.07 1006.64 1006.68 1006.97 1007.10 1006.97 1006.94 1007.11 1006.64 1005.90 1005.27 1004.72 1004.62 1003.55 1003.17 1002.20 1002.41 1003.71 1004.52 1005.08 1006.14 1007.35 1007.87 1008.93 1009.55 1009.76 1010.01
1019.60 1019.02 1018.43 1017.88 1017.28 1016.52 1015.93 1015.24 1014.62 1014.02 1013.57 1013.17 1012.95 1012.68 1012.45 1012.16 1009.87 1006.63 1006.43 1006.55 1006.74 1006.78 1007.12 1006.70 1006.51 1006.72 1006.29 1005.97 1004.55 1004.45 1003.53 1003.21 1002.03 1001.59 1002.31 1003.48 1004.19 1005.21 1005.72 1006.87 1007.71 1008.74 1009.39 1009.62 1009.93
1019.38 1018.78 1018.18 1017.56 1016.92 1016.23 1015.55 1014.83 1014.17 1013.65 1013.23 1012.95 1012.67 1012.45 1012.29 1011.15 1008.02 1006.36 1006.60 1006.74 1006.72 1006.78 1006.73 1006.49 1006.33 1006.04 1005.79 1005.18 1004.47 1003.98 1003.16 1002.52 1001.97 1001.68 1002.54 1003.42 1004.00 1004.95 1006.02 1006.97 1007.86 1008.83 1009.27 1009.59 1009.99
1019.27 1018.71 1018.19 1017.45 1016.55 1015.82 1015.07 1014.28 1013.73 1013.20 1012.89 1012.66 1012.36 1012.46 1011.89 1009.40 1005.82 1006.02 1006.41 1006.82 1006.41 1006.60 1006.23 1006.13 1005.56 1004.96 1005.02 1004.89 1004.55 1003.42 1002.82 1002.32 1001.97 1002.12 1002.38 1003.14 1004.05 1004.50 1006.20 1006.70 1007.64 1008.67 1009.19 1009.52 1009.94
1019.17 1018.58 1017.95 1017.15 1016.17 1015.30 1014.64 1013.72 1013.04 1012.61 1012.48 1012.38 1012.17 1012.06 1010.61 1007.34 1005.37 1005.74 1006.14 1006.31 1006.12 1006.06 1005.94 1005.27 1005.06 1005.13 1004.77 1004.72 1003.77 1003.47 1003.72 1002.33 1002.20 1002.30 1002.46 1002.93 1004.53 1004.84 1005.78 1006.64 1007.63 1008.65 1009.02 1009.34 1009.76
1019.14 1018.51 1017.75 1016.83 1015.73 1014.78 1014.07 1013.16 1012.26 1011.87 1011.90 1011.92 1011.95 1011.47 1009.08 1005.02 1005.06 1005.72 1005.70 1005.83 1005.60 1005.44 1005.36 1004.92 1004.73 1004.65 1004.95 1004.53 1004.10 1004.05 1003.26 1002.96 1002.58 1002.39 1002.61 1003.04 1004.70 1005.16 1005.61 1006.38 1007.41 1008.15 1008.58 1009.03 1009.54
1019.09 1018.43 1017.55 1016.52 1015.40 1014.30 1013.32 1012.30 1011.28 1011.04 1011.45 1011.56 1011.75 1010.83 1007.53 1004.77 1004.69 1004.65 1004.88 1005.24 1005.27 1005.17 1005.05 1004.78 1004.98 1005.22 1005.10 1005.39 1005.10 1004.32 1004.02 1003.73 1003.39 1002.67 1002.82 1003.22 1004.30 1005.09 1005.33 1006.03 1007.01 1007.74 1008.47 1008.89 1009.20
1019.03 1018.34 1017.45 1016.29 1014.99 1014.08 1012.90 1011.33 1010.68 1010.75 1011.13 1010.85 1010.27 1009.84 1006.67 1004.60 1004.13 1004.19 1004.37 1004.63 1005.03 1005.24 1005.39 1005.33 1005.55 1005.75 1005.78 1005.94 1005.72 1005.01 1004.66 1004.11 1003.64 1003.02 1002.86 1003.27 1004.14 1004.47 1004.85 1005.59 1006.82 1007.67 1008.51 1008.87 1008.97
1018.88 1018.18 1017.34 1016.22 1014.81 1013.75 1013.34 1011.83 1011.09 1010.74 1010.00 1009.70 1008.16 1007.05 1005.00 1003.76 1003.28 1003.85 1004.16 1004.59 1004.89 1005.36 1005.75 1005.59 1006.11 1005.93 1005.86 1005.44 1004.94 1004.64 1004.55 1004.14 1003.19 1002.83 1002.89 1003.20 1003.98 1004.32 1004.51 1005.68 1006.67 1007.46 1007.19 1008.05 1008.69
1018.83 1018.14 1017.32 1016.22 1014.69 1013.45 1013.44 1012.59 1010.78 1010.36 1008.57 1007.30 1006.41 1005.78 1004.70 1003.99 1003.68 1003.72 1004.08 1004.89 1005.15 1005.62 1005.75 1005.94 1005.77 1005.37 1005.08 1004.79 1004.52 1004.34 1004.29 1003.69 1002.86 1002.45 1002.89 1002.97 1003.63 1003.89 1004.11 1005.09 1005.67 1006.59 1007.01 1007.46 1008.19
1018.75 1018.11 1017.38 1016.18 1014.07 1013.01 1013.06 1011.50 1009.89 1009.66 1009.25 1005.55 1004.28 1004.06 1003.78 1003.54 1003.25 1003.24 1003.84 1004.64 1005.22 1005.65 1005.68 1005.63 1005.03 1004.55 1004.55 1004.17 1003.98 1003.85 1003.95 1003.49 1003.24 1002.22 1002.66 1003.07 1003.76 1004.27 1003.98 1004.25 1005.02 1005.46 1005.88 1006.59 1007.15
1018.65 1018.07 1017.49 1016.61 1014.08 1013.92 1012.13 1010.61 1009.89 1009.75 1009.02 1004.99 1002.83 1002.07 1002.68 1003.03 1002.97 1002.94 1003.46 1004.39 1004.96 1005.20 1005.29 1005.09 1004.27 1004.12 1003.76 1003.45 1003.33 1003.38 1002.98 1002.64 1002.90 1003.34 1003.35 1003.34 1004.27 1004.40 1004.11 1004.16 1004.20 1004.76 1005.36 1006.03 1006.72
1018.53 1018.01 1017.55 1017.51 1016.53 1014.63 1012.09 1011.01 1010.04 1009.93 1008.18 1002.78 1001.79 1000.93 1001.44 1002.74 1002.06 1002.63 1003.19 1003.88 1004.55 1004.71 1004.86 1004.41 1003.76 1003.55 1003.11 1002.66 1002.56 1002.76 1002.54 1002.72 1003.25 1003.80 1003.71 1003.73 1004.24 1003.68 1003.62 1003.92 1004.03 1004.17 1004.53 1004.96 1005.66
1018.35 1017.89 1017.68 1016.19 1016.24 1013.81 1012.46 1011.02 1010.31 1010.00 1006.68 1002.62 1001.47 1001.41 1001.90 1002.47 1002.66 1002.62 1003.05 1003.62 1004.04 1004.64 1004.57 1004.06 1003.30 1003.11 1002.12 1001.81 1001.88 1002.10 1002.80 1003.27 1003.55 1004.24 1004.53 1003.81 1004.17 1003.68 1003.68 1003.03 1003.30 1003.37 1003.71 1003.90 1005.06
1018.03 1017.47 1017.55 1016.63 1014.72 1012.82 1012.58 1011.77 1010.97 1008.87 1004.94 1002.97 1001.88 1001.59 1001.85 1002.44 1002.78 1002.82 1003.36 1004.05 1004.69 1005.09 1005.17 1004.35 1003.67 1003.08 1002.24 1001.92 1001.64 1002.10 1003.14 1003.99 1004.43 1004.58 1004.67 1003.85 1003.78 1002.75 1001.97 1001.76 1001.90 1002.77 1003.35 1003.75 1004.42
1017.62 1016.73 1015.19 1014.40 1013.49 1013.32 1013.30 1012.79 1010.87 1007.34 1005.58 1003.70 1002.40 1002.02 1002.19 1002.33 1002.59 1002.81 1003.52 1004.40 1004.65 1005.29 1005.63 1005.08 1004.07 1002.78 1002.00 1001.56 1001.65 1002.04 1002.88 1003.99 1004.47 1005.02 1004.79 1003.88 1003.07 1002.10 1001.22 1001.29 1001.93 1002.10 1002.81 1003.97 1004.98
1017.13 1015.50 1014.07 1012.24 1012.27 1012.93 1013.60 1012.42 1009.39 1007.03 1005.29 1004.42 1003.25 1002.92 1003.02 1002.70 1002.60 1002.98 1003.31 1003.93 1004.24 1004.90 1005.84 1005.45 1004.24 1002.66 1001.73 1001.39 1000.99 1001.52 1002.25 1002.54 1003.97 1004.25 1004.76 1004.22 1003.70 1001.66 1001.52 1001.58 1001.85 1002.48 1003.86 1004.74 1005.86
1017.67 1015.71 1012.55 1010.62 1011.00 1012.18 1012.65 1011.42 1008.86 1006.98 1005.97 1005.08 1004.42 1004.12 1003.95 1003.53 1003.23 1003.08 1003.18 1003.07 1003.53 1003.99 1004.78 1005.66 1005.26 1003.44 1002.18 1001.44 1000.32 1000.97 1001.47 1002.19 1003.72 1004.93 1005.30 1004.60 1005.35 1004.86 1003.34 1002.55 1002.67 1003.41 1004.65 1005.96 1006.61
1017.55 1015.00 1009.87 1009.21 1010.92 1011.56 1011.60 1010.27 1008.47 1006.73 1005.76 1005.30 1004.98 1005.00 1005.02 1004.45 1004.24 1004.12 1003.57 1002.84 1002.98 1003.57 1004.41 1005.48 1005.95 1004.21 1003.41 1001.77 1000.98 1000.98 1001.45 1002.03 1003.38 1004.53 1005.06 1005.56 1006.25 1004.39 1004.15 1003.13 1003.39 1004.65 1005.40 1006.20 1006.82
1016.58 1014.23 1009.72 1009.37 1010.83 1011.11 1010.83 1009.75 1007.95 1006.59 1005.53 1004.68 1004.91 1005.31 1005.45 1005.29 1005.18 1004.95 1004.50 1004.15 1004.05 1003.21 1004.62 1005.06 1005.64 1005.53 1004.14 1002.08 1001.25 1001.01 1001.18 1001.84 1003.54 1004.61 1004.68 1005.27 1005.42 1004.26 1003.81 1003.78 1004.41 1005.38 1005.77 1006.60 1007.22
1016.55 1013.67 1010.00 1009.74 1010.48 1010.64 1009.83 1008.91 1007.77 1006.37 1005.34 1004.85 1005.02 1005.48 1005.64 1005.87 1005.94 1005.47 1005.13 1004.82 1004.97 1003.77 1004.54 1005.22 1005.80 1005.86 1004.06 1002.53 1001.37 1000.99 1001.25 1001.93 1002.83 1003.58 1005.30 1005.10 1005.33 1003.98 1003.60 1003.81 1003.74 1005.17 1006.18 1006.93 1007.37
1016.70 1013.55 1010.98 1010.28 1010.24 1010.26 1009.92 1008.75 1007.18 1005.76 1005.09 1004.77 1005.07 1005.39 1006.08 1006.33 1006.10 1006.21 1006.00 1005.60 1005.60 1006.65 1006.05 1005.13 1005.61 1005.65 1004.72 1003.38 1002.74 1002.48 1002.17 1002.14 1003.08 1004.31 1005.34 1005.25 1005.21 1005.32 1004.63 1004.74 1005.04 1005.12 1006.24 1006.95 1007.86
1016.52 1013.71 1012.14 1010.82 1010.43 1010.04 1009.53 1008.47 1007.21 1005.71 1004.73 1004.86 1005.38 1005.85 1006.51 1006.96 1006.86 1006.77 1006.65 1006.53 1006.69 1007.93 1008.18 1007.73 1006.41 1005.75 1004.77 1003.39 1002.58 1002.81 1002.80 1002.83 1003.68 1004.33 1004.44 1004.68 1004.93 1005.57 1004.96 1004.72 1005.23 1005.66 1006.80 1007.91 1008.91
1016.51 1014.57 1013.16 1012.05 1010.65 1009.75 1008.62 1008.16 1007.20 1006.08 1005.68 1005.51 1005.70 1006.13 1006.56 1007.05 1007.20 1007.39 1007.45 1008.01 1009.29 1008.90 1009.55 1008.83 1007.91 1005.89 1005.15 1004.13 1003.37 1003.31 1003.46 1003.18 1003.50 1003.44 1004.40 1005.19 1005.57 1004.74 1005.21 1004.63 1005.19 1005.98 1008.00 1008.71 1009.47
1016.23 1014.87 1014.01 1012.34 1010.99 1009.89 1008.56 1007.45 1006.93 1006.54 1006.68 1006.13 1006.66 1007.46 1006.74 1007.35 1007.20 1007.30 1007.35 1008.16 1009.35 1010.28 1010.77 1010.94 1010.28 1008.08 1006.09 1005.04 1004.48 1004.57 1004.18 1003.62 1004.28 1005.56 1005.59 1006.57 1006.77 1006.93 1006.33 1005.96 1005.88 1006.59 1008.23 1009.22 1009.77
Thickness
5704 5708 5711 5716 5723 5730 5737 5744 5751 5757 5764 5770 5774 5781 5786 5793 5800 5804 5807 5833 5836 5839 5836 5837 5835 5833 5833 5829 5838 5841 5787 5781 5805 5817 5824 5833 5824 5834 5839 5817 5816 5813 5801 5799 5803
5699 5702 5706 5710 5717 5725 5732 5740 5749 5755 5762 5767 5771 5777 5784 5790 5797 5807 5837 5841 5843 5840 5832 5827 5821 5828 5814 5827 5830 5816 5785 5801 5846 5848 5834 5835 5827 5822 5817 5809 5803 5797 5802 5802 5801
5693 5698 5703 5709 5715 5722 5729 5736 5745 5752 5759 5764 5769 5774 5781 5786 5793 5823 5844 5840 5841 5840 5836 5833 5828 5818 5812 5825 5827 5825 5805 5836 5842 5857 5858 5833 5825 5831 5810 5793 5800 5788 5790 5796 5795
5689 5695 5701 5707 5712 5719 5725 5733 5741 5749 5757 5763 5767 5772 5777 5784 5781 5830 5837 5838 5838 5839 5831 5829 5825 5811 5808 5805 5832 5815 5834 5839 5859 5867 5853 5830 5834 5819 5818 5814 5817 5805 5801 5799 5793
5686 5693 5699 5704 5710 5716 5722 5730 5739 5746 5753 5759 5764 5769 5774 5780 5797 5832 5832 5833 5835 5833 5825 5822 5815 5815 5802 5815 5824 5822 5833 5853 5855 5864 5849 5840 5825 5819 5814 5821 5818 5807 5803 5797 5793
5682 5689 5694 5700 5708 5714 5721 5730 5737 5744 5750 5756 5761 5763 5770 5770 5829 5830 5830 5827 5830 5826 5824 5825 5823 5831 5818 5816 5813 5833 5839 5848 5852 5855 5853 5838 5823 5823 5815 5825 5814 5805 5799 5800 5796
5678 5685 5692 5699 5707 5714 5720 5729 5736 5743 5747 5751 5757 5762 5768 5782 5827 5827 5827 5824 5829 5827 5818 5832 5835 5820 5823 5812 5832 5832 5809 5841 5841 5845 5842 5847 5807 5807 5819 5820 5808 5802 5801 5802 5799
5673 5681 5689 5697 5706 5714 5720 5728 5737 5743 5745 5749 5752 5759 5760 5821 5825 5818 5823 5820 5829 5831 5829 5837 5838 5829 5819 5826 5819 5807 5819 5796 5832 5843 5842 5834 5781 5812 5823 5816 5805 5805 5806 5804 5800
5669 5677 5686 5695 5705 5714 5722 5731 5740 5744 5744 5745 5747 5751 5760 5817 5807 5822 5823 5810 5818 5824 5829 5836 5827 5812 5811 5792 5780 5801 5775 5792 5804 5836 5836 5825 5801 5816 5826 5817 5806 5806 5800 5799 5798
5664 5673 5682 5693 5704 5712 5722 5735 5741 5742 5740 5745 5752 5740 5771 5783 5807 5815 5822 5818 5806 5808 5804 5805 5798 5783 5782 5772 5744 5774 5778 5786 5793 5820 5828 5818 5805 5820 5825 5820 5804 5801 5797 5796 5795
5659 5668 5678 5688 5701 5710 5715 5726 5729 5729 5738 5731 5749 5756 5778 5801 5816 5805 5813 5804 5801 5792 5769 5787 5766 5757 5772 5788 5796 5796 5789 5790 5809 5829 5823 5815 5806 5814 5823 5809 5797 5794 5806 5797 5798
5654 5663 5672 5683 5697 5708 5709 5711 5723 5727 5721 5752 5759 5765 5780 5792 5779 5792 5807 5778 5776 5759 5775 5765 5755 5784 5796 5800 5799 5796 5786 5791 5816 5832 5820 5817 5812 5818 5823 5811 5809 5805 5804 5804 5802
5649 5658 5666 5678 5697 5707 5706 5714 5735 5737 5708 5746 5768 5767 5772 5782 5774 5780 5791 5778 5765 5757 5763 5754 5778 5799 5793 5788 5788 5790 5783 5790 5801 5826 5830 5822 5802 5804 5822 5824 5820 5818 5818 5811 5808
5643 5652 5660 5670 5690 5693 5705 5723 5732 5734 5687 5733 5759 5775 5778 5777 5764 5793 5796 5777 5766 5754 5763 5764 5790 5786 5787 5786 5792 5771 5809 5816 5814 5801 5767 5814 5752 5795 5805 5810 5818 5818 5813 5808 5809
5638 5646 5653 5657 5665 5678 5704 5716 5727 5718 5660 5758 5764 5799 5786 5761 5776 5774 5796 5777 5754 5760 5764 5762 5775 5775 5773 5789 5801 5787 5814 5809 5809 5793 5794 5800 5766 5786 5810 5797 5805 5811 5818 5812 5814
5633 5641 5646 5661 5662 5685 5698 5712 5713 5677 5670 5747 5767 5757 5756 5759 5763 5773 5771 5782 5778 5758 5764 5769 5793 5787 5791 5806 5808 5817 5802 5798 5799 5786 5749 5784 5773 5770 5789 5804 5811 5819 5824 5830 5818
5629 5639 5642 5652 5664 5686 5692 5692 5666 5662 5740 5742 5751 5758 5750 5746 5751 5756 5750 5744 5730 5723 5725 5757 5766 5787 5802 5783 5805 5799 5778 5738 5740 5736 5732 5790 5775 5784 5819 5825 5829 5819 5819 5826 5820
5625 5638 5654 5662 5672 5677 5677 5662 5652 5702 5714 5746 5755 5756 5742 5755 5749 5753 5741 5728 5748 5740 5723 5718 5723 5773 5800 5790 5778 5783 5776 5737 5725 5729 5746 5796 5773 5788 5833 5837 5835 5832 5828 5819 5809
5622 5639 5655 5672 5675 5673 5657 5641 5671 5701 5722 5721 5735 5726 5731 5749 5752 5748 5738 5734 5744 5743 5715 5718 5732 5784 5795 5801 5807 5785 5767 5801 5770 5779 5753 5772 5777 5812 5822 5825 5832 5827 5809 5807 5801
5610 5627 5654 5679 5679 5668 5647 5649 5682 5709 5716 5716 5702 5718 5709 5726 5732 5739 5741 5754 5749 5757 5751 5735 5713 5766 5786 5800 5807 5792 5805 5770 5760 5734 5730 5763 5744 5738 5778 5797 5810 5803 5797 5790 5792
5605 5622 5672 5684 5673 5656 5640 5661 5686 5711 5717 5708 5706 5703 5707 5713 5720 5719 5733 5757 5764 5756 5753 5737 5722 5739 5765 5773 5777 5783 5775 5785 5774 5758 5736 5722 5716 5778 5776 5788 5797 5785 5786 5787 5786
5605 5611 5667 5676 5642 5647 5647 5668 5690 5701 5715 5716 5715 5708 5704 5713 5710 5715 5720 5734 5747 5760 5734 5741 5726 5709 5733 5781 5797 5795 5788 5787 5747 5747 5759 5734 5722 5790 5789 5792 5787 5781 5783 5781 5779
5595 5617 5660 5662 5629 5639 5662 5672 5686 5695 5703 5707 5703 5709 5712 5702 5694 5717 5720 5740 5741 5752 5737 5739 5711 5697 5724 5768 5788 5787 5794 5791 5773 5763 5738 5735 5728 5789 5790 5789 5795 5781 5777 5773 5776
5590 5607 5633 5644 5647 5641 5644 5656 5672 5704 5704 5710 5703 5710 5697 5691 5709 5701 5708 5727 5733 5721 5728 5742 5718 5714 5706 5742 5753 5746 5764 5780 5764 5734 5738 5743 5745 5756 5770 5770 5772 5774 5770 5769 5769
5586 5603 5620 5626 5634 5640 5646 5658 5664 5678 5703 5705 5695 5695 5687 5677 5685 5688 5700 5711 5716 5704 5704 5707 5710 5724 5736 5752 5759 5751 5757 5766 5752 5753 5744 5756 5754 5754 5761 5768 5771 5770 5761 5751 5750
5575 5590 5610 5619 5635 5642 5649 5649 5661 5676 5681 5683 5682 5689 5688 5673 5680 5676 5685 5689 5672 5692 5685 5694 5689 5730 5723 5744 5749 5741 5750 5760 5763 5759 5754 5750 5746 5763 5760 5774 5766 5761 5740 5740 5741
5578 5595 5599 5611 5626 5633 5644 5660 5666 5675 5675 5682 5677 5663 5677 5675 5688 5691 5692 5687 5677 5671 5665 5665 5658 5686 5694 5734 5734 5714 5732 5751 5755 5739 5735 5718 5728 5735 5740 5748 5752 5749 5742 5734 5734